Weather History for Athens, OH

Change the Weather History Date:

Friday, November 8, 2013

  Actual Average (KPKB) Record (KPKB)
Temperature  
Mean Temperature 38 °F 48 °F  
Max Temperature 48 °F 59 °F 75 °F (1932)
Min Temperature 27 °F 38 °F 19 °F (1971)
Degree Days  
Heating Degree Days 28 17  
Month to date heating degree days 127  
Cooling Degree Days 0 0  
Month to date cooling degree days 0  
Moisture  
Dew Point 28 °F    
Average Humidity 74    
Maximum Humidity 94    
Minimum Humidity 42    
Precipitation  
Precipitation 0.00 in 0.10 in 0.30 in (2005)
Month to date precipitation 0.86  
Sea Level Pressure  
Sea Level Pressure 30.28 in    
Wind  
Wind Speed 2 mph (West)    
Max Wind Speed 14 mph    
Max Gust Speed 18 mph    
Visibility 10 miles    
Events Snow    
T = Trace of Precipitation, MM = Missing Value Source: NWS Daily Summary

Daily Weather History Graph

Daily Weather History Graph

Search for Another Location

Airport:

Trip Planner

Search our weather history database for the weather conditions in past years. The results will help you decide how hot, cold, wet, or windy it might be!

Date:

Astronomy

Nov. 08, 2013 Rise Set
Actual Time 7:04 AM EST 5:20 PM EST
Civil Twilight 6:36 AM EST 5:48 PM EST
Nautical Twilight 6:04 AM EST 6:20 PM EST
Astronomical Twilight 5:33 AM EST 6:51 PM EST
Moon 11:59 AM EST (11/8) 10:39 PM EST (11/8)
Length of Visible Light 11h 11m
Length of Day
10h 15m
Waxing Crescent, 33% of the Moon is Illuminated
Nov 8
Waxing Crescent
Nov 10
First Quarter
Nov 17
Full
Nov 25
Last Quarter
Dec 2
New

Hourly Weather History & Observations

Time (EST) Temp. Windchill Dew Point Humidity Pressure Visibility Wind Dir Wind Speed Gust Speed Precip Events Conditions
12:15 AM 33.1 °F - 29.1 °F 85% 30.19 in 10.0 mi Calm Calm - N/A   Mostly Cloudy
12:35 AM 32.9 °F - 27.7 °F 81% 30.19 in 10.0 mi Calm Calm - N/A   Scattered Clouds
12:55 AM 32.5 °F - 27.5 °F 82% 30.19 in 10.0 mi Calm Calm - N/A Snow Light Snow
1:15 AM 32.0 °F - 27.3 °F 83% 30.18 in 10.0 mi Calm Calm - N/A   Scattered Clouds
1:35 AM 33.3 °F - 27.0 °F 78% 30.18 in 10.0 mi Calm Calm - N/A Snow Light Snow
1:55 AM 32.9 °F - 26.6 °F 78% 30.18 in 10.0 mi Calm Calm - N/A Snow Light Snow
2:15 AM 31.8 °F - 26.8 °F 82% 30.19 in 10.0 mi Calm Calm - N/A Snow Light Snow
2:35 AM 31.1 °F - 26.6 °F 83% 30.19 in 10.0 mi Calm Calm - N/A   Clear
2:55 AM 31.3 °F - 26.8 °F 83% 30.19 in 10.0 mi Calm Calm - N/A   Clear
3:15 AM 30.7 °F 27.3 °F 26.4 °F 84% 30.20 in 10.0 mi WSW 3.5 mph - N/A Snow Light Snow
3:35 AM 29.7 °F - 26.8 °F 89% 30.20 in 10.0 mi Calm Calm - N/A Snow Light Snow
3:55 AM 30.2 °F - 27.0 °F 88% 30.20 in 10.0 mi Calm Calm - N/A Snow Light Snow
4:15 AM 29.3 °F - 26.6 °F 90% 30.21 in 10.0 mi Calm Calm - N/A   Clear
4:35 AM 29.3 °F - 27.0 °F 91% 30.21 in 10.0 mi Calm Calm - N/A   Clear
4:55 AM 29.7 °F - 27.3 °F 91% 30.22 in 10.0 mi Calm Calm - N/A   Clear
5:15 AM 28.9 °F - 27.0 °F 92% 30.23 in 10.0 mi Calm Calm - N/A   Clear
5:35 AM 28.4 °F - 26.6 °F 93% 30.24 in 10.0 mi Calm Calm - N/A   Clear
5:55 AM 28.4 °F - 27.0 °F 94% 30.25 in 10.0 mi Calm Calm - N/A   Clear
6:15 AM 28.9 °F - 27.1 °F 93% 30.27 in 10.0 mi Calm Calm - N/A   Clear
6:35 AM 27.1 °F 23.2 °F 25.5 °F 94% 30.28 in 10.0 mi West 3.5 mph - N/A   Clear
6:55 AM 27.5 °F - 25.9 °F 94% 30.29 in 10.0 mi Calm Calm - N/A Snow Light Snow
7:15 AM 27.1 °F - 25.7 °F 94% 30.30 in 10.0 mi Calm Calm - N/A   Clear
7:35 AM 27.7 °F - 26.1 °F 94% 30.31 in 10.0 mi Calm Calm - N/A   Clear
7:55 AM 29.7 °F - 28.0 °F 94% 30.32 in 10.0 mi Calm Calm - N/A   Clear
8:15 AM 32.0 °F 28.7 °F 29.8 °F 92% 30.32 in 10.0 mi WSW 3.5 mph - N/A   Clear
8:35 AM 34.5 °F - 31.6 °F 89% 30.33 in 10.0 mi Calm Calm - N/A   Clear
8:55 AM 36.9 °F 32.2 °F 32.2 °F 83% 30.33 in 10.0 mi West 5.8 mph - N/A   Clear
9:15 AM 38.3 °F 32.5 °F 32.0 °F 78% 30.34 in 7.0 mi West 8.1 mph - N/A   Clear
9:35 AM 39.4 °F 36.1 °F 31.3 °F 73% 30.34 in 10.0 mi West 4.6 mph - N/A   Clear
9:55 AM 41.0 °F 35.2 °F 31.3 °F 68% 30.35 in 7.0 mi WSW 9.2 mph - N/A   Clear
10:15 AM 41.7 °F 38.0 °F 30.4 °F 64% 30.35 in 10.0 mi WNW 5.8 mph - N/A   Clear
10:35 AM 42.8 °F 36.6 °F 30.9 °F 63% 30.35 in 10.0 mi West 11.5 mph 18.4 mph N/A   Scattered Clouds
10:55 AM 43.7 °F 39.1 °F 30.0 °F 59% 30.35 in 10.0 mi WSW 8.1 mph - N/A   Scattered Clouds
11:15 AM 44.4 °F 39.5 °F 29.1 °F 55% 30.35 in 10.0 mi West 9.2 mph 17.3 mph N/A   Clear
11:35 AM 45.1 °F 40.3 °F 28.2 °F 52% 30.34 in 7.0 mi West 9.2 mph 17.3 mph N/A   Clear
11:55 AM 46.4 °F 41.1 °F 27.9 °F 48% 30.33 in 10.0 mi WSW 11.5 mph 16.1 mph N/A   Clear
12:15 PM 46.2 °F 41.7 °F 27.3 °F 48% 30.32 in 10.0 mi NW 9.2 mph - N/A   Clear
12:35 PM 47.3 °F - 27.3 °F 46% 30.31 in 10.0 mi West 5.8 mph - N/A   Clear
12:55 PM 46.6 °F - 27.9 °F 48% 30.30 in 10.0 mi WNW 6.9 mph - N/A   Clear
1:15 PM 48.4 °F - 26.4 °F 42% 30.29 in 10.0 mi West 13.8 mph 17.3 mph N/A   Scattered Clouds
1:35 PM 47.8 °F - 26.6 °F 44% 30.29 in 10.0 mi West 6.9 mph - N/A   Mostly Cloudy
1:55 PM 47.1 °F - 25.5 °F 43% 30.29 in 10.0 mi WNW 8.1 mph - N/A   Scattered Clouds
2:15 PM 48.4 °F - 26.4 °F 42% 30.29 in 10.0 mi West 6.9 mph - N/A   Scattered Clouds
2:35 PM 48.4 °F - 25.9 °F 42% 30.29 in 10.0 mi WNW 11.5 mph 16.1 mph N/A   Scattered Clouds
2:55 PM 48.0 °F - 26.2 °F 43% 30.29 in 10.0 mi WNW 8.1 mph - N/A   Clear
3:15 PM 48.2 °F - 26.2 °F 42% 30.29 in 10.0 mi WNW 9.2 mph - N/A   Clear
3:35 PM 47.7 °F - 26.2 °F 43% 30.29 in 10.0 mi NNW 4.6 mph - N/A   Clear
3:55 PM 47.5 °F - 26.2 °F 44% 30.28 in 10.0 mi NW 6.9 mph - N/A   Clear
4:15 PM 47.3 °F - 27.1 °F 46% 30.27 in 10.0 mi WNW 6.9 mph - N/A   Clear
4:35 PM 46.4 °F 45.2 °F 26.8 °F 46% 30.28 in 10.0 mi WNW 3.5 mph - N/A   Clear
4:55 PM 45.3 °F 41.6 °F 26.8 °F 48% 30.27 in 10.0 mi West 6.9 mph - N/A   Clear
5:15 PM 44.6 °F 43.1 °F 26.6 °F 49% 30.27 in 10.0 mi NW 3.5 mph - N/A   Clear
5:35 PM 39.9 °F - 28.2 °F 63% 30.29 in 10.0 mi Calm Calm - N/A   Clear
5:55 PM 39.2 °F - 28.4 °F 65% 30.28 in 10.0 mi Calm Calm - N/A   Clear
6:15 PM 37.0 °F - 29.1 °F 73% 30.29 in 10.0 mi Calm Calm - N/A   Clear
6:35 PM 36.7 °F - 28.6 °F 72% 30.29 in 10.0 mi Calm Calm - N/A   Clear
6:55 PM 35.8 °F - 29.3 °F 77% 30.29 in 10.0 mi Calm Calm - N/A   Clear
7:15 PM 34.2 °F - 29.3 °F 82% 30.29 in 10.0 mi Calm Calm - N/A   Clear
7:35 PM 33.6 °F - 28.4 °F 81% 30.29 in 10.0 mi Calm Calm - N/A   Clear
7:55 PM 33.1 °F - 28.4 °F 83% 30.29 in 10.0 mi Calm Calm - N/A   Clear
8:15 PM 31.8 °F - 28.0 °F 86% 30.29 in 10.0 mi Calm Calm - N/A   Clear
8:35 PM 32.0 °F - 29.5 °F 90% 30.29 in 10.0 mi Calm Calm - N/A   Clear
8:55 PM 31.8 °F - 28.6 °F 88% 30.29 in 10.0 mi Calm Calm - N/A   Clear
9:15 PM 31.3 °F - 28.6 °F 90% 30.29 in 10.0 mi Calm Calm - N/A   Clear
9:35 PM 30.7 °F - 28.0 °F 90% 30.30 in 10.0 mi Calm Calm - N/A   Clear
9:55 PM 30.7 °F - 28.4 °F 91% 30.30 in 10.0 mi Calm Calm - N/A   Clear
10:15 PM 30.6 °F - 28.2 °F 91% 30.29 in 10.0 mi Calm Calm - N/A   Clear
10:35 PM 29.8 °F - 27.3 °F 90% 30.29 in 10.0 mi Calm Calm - N/A   Clear
10:55 PM 29.1 °F - 27.0 °F 92% 30.29 in 10.0 mi Calm Calm - N/A   Clear
11:15 PM 29.7 °F - 27.5 °F 92% 30.29 in 10.0 mi Calm Calm - N/A   Clear
11:35 PM 29.8 °F - 27.5 °F 91% 30.28 in 10.0 mi Calm Calm - N/A   Clear
11:55 PM 29.8 °F - 28.0 °F 93% 30.27 in 10.0 mi Calm Calm - N/A   Clear